[[{"header":{"parameterUnit":"m.s-1","parameterCategory":1,"la1":30.2992,"la2":30.254,"lo1":-89.0895,"lo2":-89.0443,"dy":0.0025,"dx":0.0025,"nx":19,"ny":19,"refTime":"2026-03-22T09:00:00:Z","depth":0,"parameterNumber":2,"parameterNumberName":"U-component_of_WINDS"},"data":[0,0,0,4.0481,4.0485,4.0705,4.0706,4.0993,4.0995,0,0,0,0,0,0,0,0,0,0,0,4.0418,4.042,4.048,4.0486,4.0705,4.0706,4.0992,4.0995,0,0,0,0,0,0,0,0,0,0,0,4.0417,4.0419,4.0422,4.0487,4.0705,4.0706,4.0992,4.0824,0,0,0,0,0,0,0,0,0,0,4.061,4.0554,4.0419,4.0422,4.0488,4.0705,4.0706,4.0816,4.0835,4.0895,0,4.0948,0,4.0976,4.1015,4.1016,0,0,0,4.0485,4.0538,4.0595,4.0422,4.049,4.0705,4.0606,4.0826,4.0847,4.092,4.0952,4.0963,4.0981,4.1016,4.1018,4.1366,4.1368,0,0,4.0473,4.0459,4.0581,4.0609,4.0574,4.0599,4.0613,4.0839,4.0874,4.0953,4.0969,4.0986,4.1018,4.1021,4.1364,4.1366,0,0,0,4.0438,4.045,4.0502,4.0597,4.0636,4.0605,4.0621,4.0864,4.0882,4.0972,4.0989,4.102,4.1024,4.1363,4.1365,4.1432,0,0,0,4.0431,4.043,4.0497,4.049,4.0632,4.0753,4.0641,4.0866,4.0892,4.0988,4.102,4.1026,4.1361,4.1364,4.1427,4.1466,0,0,0,4.0403,4.0427,4.0459,4.0489,4.0583,4.0749,4.078,4.0872,4.0903,4.1016,4.1027,4.136,4.1363,4.1422,4.1458,4.1552,0,0,0,4.0369,4.0518,4.046,4.0634,4.0581,4.0789,4.0779,4.0936,4.1041,4.1022,4.1361,4.1365,4.142,4.1453,4.1546,4.1627,4.166,0,0,4.0549,4.0539,4.0642,4.0597,4.0812,4.0757,4.0983,4.1093,4.1118,4.1282,4.1291,4.1429,4.1457,4.1551,4.1852,4.1878,0,0,0,4.0695,4.0768,4.0828,4.0927,4.1014,4.1092,4.117,4.1211,4.135,4.1199,4.149,4.1507,4.1563,4.1602,4.1624,4.1672,4.1383,4.1383,4.1382,4.093,4.0952,4.1123,4.1172,4.1268,4.1346,4.1426,4.1494,4.149,4.1558,4.1606,4.1786,4.1832,4.1849,4.1898,4.1653,4.1653,4.1653,4.1654,4.1194,4.1301,4.1291,4.1453,4.1476,4.1613,4.1694,4.1687,4.1818,4.1752,4.1802,4.1727,4.1876,4.192,4.1659,4.1658,4.1657,4.1657,4.1656,4.1349,4.1403,4.145,4.1594,4.1703,4.1748,4.1874,4.1892,4.1909,4.1959,4.201,4.2009,4.2008,4.1982,4.1983,4.1984,4.1984,4.1985,4.1985,4.1489,4.1539,4.1642,4.1747,4.1812,4.19,4.198,4.2045,4.2122,4.2124,4.2125,4.2112,4.1887,4.1829,4.1995,4.1993,4.1992,4.1991,4.199,4.1745,4.169,4.1849,4.1914,4.2038,4.2144,4.2165,4.2296,4.2353,4.2414,4.2392,4.2223,4.2214,4.2197,4.2148,4.2387,4.2387,4.2387,4.2387,4.1873,4.1871,4.2036,4.2139,4.2242,4.2277,4.2456,4.252,4.2577,4.2614,4.2582,4.2521,4.2502,4.2504,4.248,4.2435,4.2742,4.2742,4.2743,4.2031,4.2039,4.2187,4.2241,4.234,4.2424,4.2592,4.2711,4.2766,4.2757,4.2642,4.2627,4.2528,4.2494,4.2481,4.2443,4.2361,0,0]},{"header":{"parameterUnit":"m.s-1","parameterCategory":1,"la1":30.2992,"la2":30.254,"lo1":-89.0895,"lo2":-89.0443,"dy":0.0025,"dx":0.0025,"nx":19,"ny":19,"refTime":"2026-03-22T09:00:00:Z","depth":0,"parameterNumber":3,"parameterNumberName":"V-component_of_WINDS"},"data":[0,0,0,3.5219,3.5224,3.5499,3.55,3.5838,3.5841,0,0,0,0,0,0,0,0,0,0,0,3.513,3.5132,3.5218,3.5225,3.5499,3.55,3.5838,3.5841,0,0,0,0,0,0,0,0,0,0,0,3.5129,3.5131,3.5134,3.5226,3.5499,3.55,3.5837,3.5635,0,0,0,0,0,0,0,0,0,0,3.537,3.5281,3.5131,3.5134,3.5227,3.5499,3.5501,3.5625,3.5647,3.5708,0,3.5761,0,3.5806,3.5863,3.5864,0,0,0,3.5231,3.5262,3.5343,3.5134,3.523,3.5498,3.5377,3.5638,3.5663,3.5738,3.5766,3.5779,3.5812,3.5865,3.5867,3.6201,3.6202,0,0,3.5215,3.5175,3.5326,3.5359,3.5316,3.5368,3.5385,3.5653,3.5681,3.5767,3.5787,3.5818,3.5867,3.587,3.62,3.6201,0,0,0,3.5168,3.5164,3.5239,3.5345,3.5395,3.5376,3.5396,3.5669,3.5697,3.5791,3.5822,3.5869,3.5873,3.6199,3.62,3.6226,0,0,0,3.5159,3.5137,3.5232,3.521,3.539,3.5536,3.5406,3.5678,3.571,3.582,3.5869,3.5876,3.6197,3.62,3.6222,3.6244,0,0,0,3.5114,3.5131,3.5168,3.5207,3.5324,3.5532,3.5576,3.5686,3.5728,3.5864,3.5877,3.6196,3.6199,3.6219,3.6239,3.6321,0,0,0,3.5055,3.5187,3.5168,3.5327,3.5321,3.5545,3.5574,3.5744,3.5863,3.5871,3.6197,3.62,3.6218,3.6236,3.6317,3.6383,3.6406,0,0,3.5199,3.5203,3.53,3.5291,3.5508,3.5507,3.5728,3.5876,3.5926,3.6106,3.6115,3.6223,3.6239,3.632,3.655,3.6568,0,0,0,3.5331,3.5401,3.5467,3.5579,3.5695,3.5796,3.5914,3.5969,3.6124,3.601,3.6276,3.6286,3.6336,3.6369,3.6385,3.643,3.6214,3.6213,3.6213,3.5477,3.5534,3.5698,3.5788,3.5896,3.6016,3.6109,3.6203,3.6229,3.629,3.6345,3.6477,3.6515,3.6527,3.6573,3.6383,3.6383,3.6383,3.6384,3.5694,3.5801,3.5831,3.6001,3.606,3.6204,3.6324,3.6337,3.6479,3.6441,3.6488,3.6441,3.6545,3.6588,3.6386,3.6386,3.6385,3.6385,3.6385,3.5796,3.5857,3.5922,3.6089,3.6212,3.6298,3.6433,3.6482,3.6528,3.6574,3.6637,3.6636,3.6643,3.66,3.6601,3.6601,3.6602,3.6602,3.6602,3.5877,3.5949,3.6057,3.6191,3.6269,3.6378,3.65,3.6578,3.6677,3.6702,3.6703,3.6722,3.6544,3.6499,3.661,3.6608,3.6607,3.6607,3.6606,3.6076,3.6039,3.6206,3.6284,3.6445,3.6564,3.6624,3.6779,3.6851,3.6916,3.6926,3.6786,3.6794,3.6782,3.6745,3.6912,3.6912,3.6912,3.6912,3.6163,3.6171,3.6353,3.6475,3.66,3.6671,3.6858,3.6953,3.7046,3.7094,3.7077,3.7031,3.7017,3.7033,3.7016,3.6982,3.7206,3.7207,3.7207,3.6289,3.6312,3.6461,3.6552,3.6681,3.6791,3.6968,3.7107,3.7204,3.722,3.7133,3.712,3.7048,3.7021,3.7035,3.7007,3.6946,0,0]}]]